SL-12 R/B(2), 32278

Orbit data source: Space-Track

SL-12 R/B(2), 32278 is space debris in MEO originally from a launch on Fri, 26 Oct 2007 UTC launched from the Tyuratam Missile And Space Complex (TTMTR). Debris objects in space refer to the collection of defunct objects orbiting the Earth. Examples of debris include non-operational satellites, rocket bodies, and fragments generated from explosions, collisions, or faulty payload assembly.

Loading next visibility...
Identifier
32278, 2007-052D
Orbit
MEO
Country
Flag of CISCIS
Related business
Manufacturer
RKKE
Mission
Spacecraft
Bus & Motor
BLOK DM2, 11D58M
Mass
2,440 kg wet, 2,440 kg dry
Launch date (UTC)
2007-10-26 (18 years ago)
Launch vehicle
Unknown
Launch site
Tyuratam Missile And Space Complex (TTMTR)
Object type
Payload
Rocket body
Debris
Shape & HBR
Cyl, 3.5 m
Radar Cross Section
26.008 m², Large (>1 m²)

Expand to show TLE details & history
Last TLE update: 4 days ago

TLE from 4 days ago
0 SL-12 R/B(2)
1 32278U 07052D   25301.56989206 -.00000013  00000-0  00000-0 0  9997
2 32278  65.6978 323.1082 0018612 199.2877 157.6500  2.13393921140197
Epoch: 2025-10-28T13:40Z
TLE epoch observation values (Epoch: 2025-10-28T13:40:38.673Z)
Latitude
-2.76842°
Longitude
79.55066°
Altitude
19,151.453 km
Speed
3.948 km/s
True Right ascension
21h 27m 28s
True Declination
-2° 45' 50"
Sunlit
Object was in daylight at epoch
Visualization orbit readout
Latitude
Unknown
Longitude
Unknown
Altitude
Unknown
Speed
Unknown
Apparent Right ascension
Unknown
Apparent Declination
Unknown
Sunlit
N/A
Visualization observer readout
Local Sidereal Time
06:49:12
Azimuth
Unknown
Elevation
Unknown
Doppler factor
Unknown
Orbital elements
Apogee altitude
19,153.641 km
Perigee altitude
19,058.778 km
Semi-major axis
25,484.347 km
Eccentricity
0.00186
Inclination
65.6978°
RAAN
323.1082°
Arg. of periapsis
199.2877°
True anomaly
157.73093°
Mean anomaly
157.65°
Eccentric anomaly
157.69048°
Mean motion
0.5335 °/min
Orbital period
674.79 mins
BSTAR
0
Loading maneuver chart data...
Computing Atmospheric mass density...
Loading historical data...
Loading historical data...
Loading historical data...
Loading historical data...
Loading historical data...
Loading historical data...
Loading historical data...

Documentation

Showing up to 5 results
|